Time,TemperatureF,DewpointF,PressureIn,WindDirection,WindDirectionDegrees,WindSpeedMPH,WindSpeedGustMPH,Humidity,HourlyPrecipIn,Conditions,Clouds,dailyrainin,SoftwareType,DateUTC
2013-12-31 00:11:00,42.0,38.0,30.25,ESE,121,0.0,0.0,85,0.00,,,0.00,,2013-12-31 08:11:00,
2013-12-31 00:22:00,41.0,37.0,30.25,ESE,121,0.0,0.0,85,0.00,,,0.00,,2013-12-31 08:22:00,
2013-12-31 00:42:00,41.0,37.0,30.25,ESE,121,0.0,0.0,86,0.00,,,0.00,,2013-12-31 08:42:00,
2013-12-31 00:52:00,40.0,36.0,30.24,ESE,121,2.0,4.0,86,0.00,,,0.00,,2013-12-31 08:52:00,
2013-12-31 01:21:00,41.0,38.0,30.24,ESE,121,0.0,3.0,88,0.00,,,0.00,,2013-12-31 09:21:00,
2013-12-31 01:43:00,41.0,38.0,30.24,ESE,121,2.0,4.0,88,0.00,,,0.00,,2013-12-31 09:43:00,
2013-12-31 01:53:00,41.0,38.0,30.25,ESE,121,3.0,5.0,88,0.00,,,0.00,,2013-12-31 09:53:00,
2013-12-31 02:12:00,41.0,38.0,30.24,ESE,121,0.0,5.0,88,0.00,,,0.00,,2013-12-31 10:12:00,
2013-12-31 02:23:00,41.0,38.0,30.25,SSE,150,3.0,5.0,89,0.00,,,0.00,,2013-12-31 10:23:00,
2013-12-31 02:43:00,41.0,38.0,30.24,SSE,157,6.0,8.0,89,0.00,,,0.00,,2013-12-31 10:43:00,
2013-12-31 02:53:00,42.0,39.0,30.24,SSE,150,4.0,6.0,89,0.00,,,0.00,,2013-12-31 10:53:00,
2013-12-31 03:11:00,42.0,39.0,30.24,SSE,156,4.0,6.0,89,0.00,,,0.00,,2013-12-31 11:11:00,
2013-12-31 03:22:00,42.0,39.0,30.25,SSE,156,0.0,0.0,89,0.00,,,0.00,,2013-12-31 11:22:00,
2013-12-31 03:43:00,41.0,38.0,30.25,South,169,3.0,6.0,89,0.00,,,0.00,,2013-12-31 11:43:00,
2013-12-31 03:52:00,42.0,39.0,30.26,South,169,2.0,4.0,89,0.00,,,0.00,,2013-12-31 11:52:00,
2013-12-31 04:11:00,42.0,39.0,30.26,South,169,3.0,5.0,89,0.00,,,0.00,,2013-12-31 12:11:00,
2013-12-31 04:22:00,42.0,39.0,30.26,South,169,0.0,0.0,89,0.00,,,0.00,,2013-12-31 12:22:00,
2013-12-31 04:42:00,42.0,39.0,30.25,South,169,0.0,0.0,89,0.00,,,0.00,,2013-12-31 12:42:00,
2013-12-31 04:52:00,41.0,38.0,30.24,South,169,2.0,4.0,89,0.00,,,0.00,,2013-12-31 12:52:00,
2013-12-31 05:11:00,41.0,38.0,30.24,South,169,2.0,4.0,90,0.00,,,0.00,,2013-12-31 13:11:00,
2013-12-31 05:21:00,42.0,39.0,30.24,East,79,4.0,6.0,90,0.00,,,0.00,,2013-12-31 13:21:00,
2013-12-31 05:42:00,42.0,39.0,30.24,East,91,0.0,2.0,89,0.00,,,0.00,,2013-12-31 13:42:00,
2013-12-31 05:52:00,42.0,39.0,30.23,East,93,1.0,3.0,89,0.00,,,0.00,,2013-12-31 13:52:00,
2013-12-31 06:11:00,42.0,39.0,30.25,East,93,0.0,4.0,89,0.00,,,0.00,,2013-12-31 14:11:00,
2013-12-31 06:22:00,42.0,39.0,30.26,East,93,0.0,3.0,89,0.00,,,0.00,,2013-12-31 14:22:00,
2013-12-31 06:42:00,42.0,39.0,30.27,East,93,0.0,0.0,89,0.00,,,0.00,,2013-12-31 14:42:00,
2013-12-31 06:52:00,42.0,39.0,30.26,East,93,0.0,0.0,89,0.00,,,0.00,,2013-12-31 14:52:00,
2013-12-31 07:11:00,42.0,39.0,30.26,East,93,0.0,0.0,90,0.00,,,0.00,,2013-12-31 15:11:00,
2013-12-31 07:21:00,42.0,39.0,30.26,East,93,0.0,0.0,90,0.00,,,0.00,,2013-12-31 15:21:00,
2013-12-31 07:43:00,42.0,39.0,30.26,East,93,3.0,5.0,90,0.00,,,0.00,,2013-12-31 15:43:00,
2013-12-31 07:53:00,42.0,39.0,30.27,ESE,108,2.0,8.0,90,0.00,,,0.00,,2013-12-31 15:53:00,
2013-12-31 08:13:00,43.0,40.0,30.27,ESE,115,3.0,6.0,90,0.00,,,0.00,,2013-12-31 16:13:00,
2013-12-31 08:23:00,43.0,40.0,30.27,ENE,78,6.0,8.0,89,0.00,,,0.00,,2013-12-31 16:23:00,
2013-12-31 08:42:00,43.0,40.0,30.27,SE,139,0.0,5.0,89,0.00,,,0.00,,2013-12-31 16:42:00,
2013-12-31 08:52:00,43.0,40.0,30.27,SE,138,0.0,3.0,89,0.00,,,0.00,,2013-12-31 16:52:00,
2013-12-31 09:12:00,43.0,40.0,30.28,ESE,106,2.0,7.0,89,0.00,,,0.00,,2013-12-31 17:12:00,
2013-12-31 09:22:00,44.0,41.0,30.28,ESE,104,5.0,10.0,88,0.00,,,0.00,,2013-12-31 17:22:00,
2013-12-31 09:42:00,44.0,40.0,30.28,ESE,116,2.0,4.0,87,0.00,,,0.00,,2013-12-31 17:42:00,
2013-12-31 09:53:00,45.0,41.0,30.29,SE,131,0.0,5.0,86,0.00,,,0.00,,2013-12-31 17:53:00,
2013-12-31 10:12:00,45.0,41.0,30.30,SE,141,0.0,3.0,86,0.00,,,0.00,,2013-12-31 18:12:00,
2013-12-31 10:21:00,46.0,42.0,30.30,SE,141,0.0,3.0,87,0.00,,,0.00,,2013-12-31 18:21:00,
2013-12-31 10:42:00,47.0,43.0,30.32,NNW,335,4.0,5.0,87,0.00,,,0.00,,2013-12-31 18:42:00,
2013-12-31 10:53:00,47.0,43.0,30.33,North,351,5.0,8.0,87,0.00,,,0.00,,2013-12-31 18:53:00,
2013-12-31 11:11:00,47.0,44.0,30.32,North,357,4.0,7.0,88,0.00,,,0.00,,2013-12-31 19:11:00,
2013-12-31 11:21:00,47.0,44.0,30.32,North,349,1.0,4.0,88,0.00,,,0.00,,2013-12-31 19:21:00,
2013-12-31 11:42:00,47.0,44.0,30.32,North,351,0.0,2.0,88,0.00,,,0.00,,2013-12-31 19:42:00,
2013-12-31 11:53:00,47.0,44.0,30.31,NNW,329,0.0,0.0,89,0.00,,,0.00,,2013-12-31 19:53:00,
2013-12-31 12:11:00,48.0,45.0,30.32,NW,310,1.0,4.0,89,0.00,,,0.00,,2013-12-31 20:11:00,
2013-12-31 12:21:00,48.0,45.0,30.30,NW,310,0.0,0.0,89,0.00,,,0.00,,2013-12-31 20:21:00,
2013-12-31 12:42:00,49.0,46.0,30.29,WSW,257,3.0,4.0,88,0.00,,,0.00,,2013-12-31 20:42:00,
2013-12-31 12:53:00,49.0,46.0,30.30,WSW,254,2.0,5.0,88,0.00,,,0.00,,2013-12-31 20:53:00,
2013-12-31 13:11:00,50.0,47.0,30.29,WSW,254,0.0,4.0,88,0.00,,,0.00,,2013-12-31 21:11:00,
2013-12-31 13:21:00,50.0,46.0,30.29,WSW,252,3.0,4.0,87,0.00,,,0.00,,2013-12-31 21:21:00,
2013-12-31 13:43:00,50.0,46.0,30.29,WSW,252,1.0,4.0,87,0.00,,,0.00,,2013-12-31 21:43:00,
2013-12-31 13:53:00,50.0,46.0,30.30,WSW,252,3.0,4.0,87,0.00,,,0.00,,2013-12-31 21:53:00,
2013-12-31 14:13:00,50.0,46.0,30.29,WSW,252,0.0,2.0,86,0.00,,,0.00,,2013-12-31 22:13:00,
2013-12-31 14:23:00,50.0,46.0,30.29,WSW,252,0.0,3.0,86,0.00,,,0.00,,2013-12-31 22:23:00,
2013-12-31 14:33:00,50.0,46.0,30.29,WSW,252,0.0,3.0,86,0.00,,,0.00,,2013-12-31 22:33:00,
2013-12-31 14:53:00,49.0,45.0,30.29,WSW,252,0.0,3.0,87,0.00,,,0.00,,2013-12-31 22:53:00,
2013-12-31 15:12:00,49.0,45.0,30.29,West,275,2.0,4.0,87,0.00,,,0.00,,2013-12-31 23:12:00,
2013-12-31 15:22:00,49.0,45.0,30.29,WNW,300,3.0,5.0,87,0.00,,,0.00,,2013-12-31 23:22:00,
2013-12-31 15:42:00,49.0,46.0,30.30,NNW,337,3.0,5.0,88,0.00,,,0.00,,2013-12-31 23:42:00,
2013-12-31 15:53:00,48.0,45.0,30.30,NNW,341,0.0,3.0,88,0.00,,,0.00,,2013-12-31 23:53:00,
2013-12-31 16:11:00,48.0,45.0,30.29,WNW,301,2.0,4.0,89,0.00,,,0.00,,2014-01-01 00:11:00,
2013-12-31 16:21:00,48.0,45.0,30.29,NW,323,3.0,4.0,89,0.00,,,0.00,,2014-01-01 00:21:00,
2013-12-31 16:42:00,48.0,45.0,30.29,NW,323,3.0,4.0,89,0.00,,,0.00,,2014-01-01 00:42:00,
2013-12-31 16:52:00,47.0,44.0,30.28,NW,323,0.0,0.0,90,0.00,,,0.00,,2014-01-01 00:52:00,
2013-12-31 17:11:00,47.0,44.0,30.29,West,275,2.0,6.0,90,0.00,,,0.00,,2014-01-01 01:11:00,
2013-12-31 17:21:00,47.0,44.0,30.29,NNW,346,3.0,5.0,90,0.00,,,0.00,,2014-01-01 01:21:00,
2013-12-31 17:42:00,46.0,43.0,30.29,NNE,32,1.0,4.0,90,0.00,,,0.00,,2014-01-01 01:42:00,
2013-12-31 17:52:00,45.0,43.0,30.29,NE,42,5.0,8.0,91,0.00,,,0.00,,2014-01-01 01:52:00,
2013-12-31 18:22:00,45.0,43.0,30.29,NNE,33,4.0,8.0,92,0.00,,,0.00,,2014-01-01 02:22:00,
2013-12-31 18:42:00,44.0,42.0,30.29,ENE,67,1.0,7.0,92,0.00,,,0.00,,2014-01-01 02:42:00,
2013-12-31 18:52:00,44.0,42.0,30.29,NNE,30,4.0,7.0,92,0.00,,,0.00,,2014-01-01 02:52:00,
2013-12-31 19:12:00,43.0,41.0,30.30,NNE,25,6.0,8.0,92,0.00,,,0.00,,2014-01-01 03:12:00,
2013-12-31 19:22:00,44.0,42.0,30.30,NNE,12,4.0,5.0,93,0.00,,,0.00,,2014-01-01 03:22:00,
2013-12-31 19:43:00,43.0,41.0,30.30,North,7,1.0,4.0,93,0.00,,,0.00,,2014-01-01 03:43:00,
2013-12-31 19:53:00,42.0,40.0,30.31,NNE,17,0.0,5.0,92,0.00,,,0.00,,2014-01-01 03:53:00,
2013-12-31 20:13:00,42.0,40.0,30.32,NNE,26,0.0,0.0,93,0.00,,,0.00,,2014-01-01 04:13:00,
2013-12-31 20:23:00,41.0,39.0,30.32,NNE,26,0.0,0.0,93,0.00,,,0.00,,2014-01-01 04:23:00,
2013-12-31 20:43:00,41.0,39.0,30.32,NE,37,0.0,0.0,93,0.00,,,0.00,,2014-01-01 04:43:00,
2013-12-31 20:53:00,41.0,39.0,30.32,NE,39,0.0,0.0,93,0.00,,,0.00,,2014-01-01 04:53:00,
2013-12-31 21:12:00,41.0,39.0,30.32,NE,39,1.0,3.0,94,0.00,,,0.00,,2014-01-01 05:12:00,
2013-12-31 21:22:00,41.0,39.0,30.33,NE,39,0.0,0.0,94,0.00,,,0.00,,2014-01-01 05:22:00,
2013-12-31 21:42:00,41.0,39.0,30.33,NE,48,0.0,0.0,94,0.00,,,0.00,,2014-01-01 05:42:00,
2013-12-31 21:52:00,42.0,40.0,30.32,NE,52,0.0,4.0,94,0.00,,,0.00,,2014-01-01 05:52:00,
2013-12-31 22:12:00,43.0,41.0,30.32,East,86,3.0,6.0,94,0.00,,,0.00,,2014-01-01 06:12:00,
2013-12-31 22:22:00,44.0,42.0,30.32,ENE,60,6.0,9.0,94,0.00,,,0.00,,2014-01-01 06:22:00,
2013-12-31 22:42:00,44.0,42.0,30.32,East,81,6.0,13.0,93,0.00,,,0.00,,2014-01-01 06:42:00,
2013-12-31 22:52:00,44.0,42.0,30.32,ENE,72,8.0,17.0,94,0.00,,,0.00,,2014-01-01 06:52:00,
2013-12-31 23:12:00,44.0,42.0,30.32,ENE,68,6.0,15.0,93,0.00,,,0.00,,2014-01-01 07:12:00,
2013-12-31 23:42:00,44.0,42.0,30.31,NE,52,8.0,14.0,92,0.00,,,0.00,,2014-01-01 07:42:00,
2013-12-31 23:52:00,45.0,43.0,30.31,NE,36,5.0,14.0,92,0.00,,,0.00,,2014-01-01 07:52:00,